Location: Camp Crooked Creek
(37.9149°N, 85.6607°W)
Time: 00:05:56
(UTC-04:00)

Amateur Radio Satellites - All Passes

Search period start: 26 April 2015 23:35
Search period end: 27 April 2015 23:35
Location: Camp Crooked Creek, 37.9149°N, 85.6607°W

Satellite Date Start Highest point End Downlink Frequencies (MHz)
Time Altitude Azimuth
VELOX 1 26 Apr 23:36:12 23:40:32 61° 75° (ENE) 23:44:53 145.980
CUBEBUG 1 26 Apr 23:38:37 23:42:19 29° 71° (ENE) 23:46:06 437.445
YUBILEINY 26 Apr 23:40:23 23:49:02 65° 267° (W) 23:57:33 435.215
DUCHIFAT 1 26 Apr 23:46:21 23:48:32 14° 91° (E) 23:50:55 145.980
POLYITAN 1 26 Apr 23:46:42 23:49:07 15° 91° (E) 23:51:43 437.675
50 SAT 26 Apr 23:51:49 23:55:49 80° 258° (WSW) 23:59:52 437.505
AISAT 26 Apr 23:54:31 23:58:55 80° 256° (WSW) 00:03:21 437.250
DX 1 27 Apr 00:00:54 00:04:43 29° 264° (W) 00:08:30 434.975-435.025
QB50P1 27 Apr 00:03:40 00:07:05 23° 94° (E) 00:10:34 145.935-145.965
PHONESAT 2.4 27 Apr 00:07:30 00:10:07 19° 213° (SSW) 00:12:41 2401.200-2431.200
ANTELSAT 27 Apr 00:11:12 00:15:53 64° 101° (E) 00:20:29 437.575/2403.000
TISAT 1 27 Apr 00:19:54 00:22:31 17° 68° (ENE) 00:25:18 437.305
QB50P2 27 Apr 00:29:40 00:33:50 48° 99° (E) 00:38:01 145.880/145.840
ESTCUBE 1 27 Apr 00:37:57 00:42:21 50° 261° (W) 00:46:45 437.505/2401.250
O/OREOS (USA 219) 27 Apr 00:39:26 00:41:36 13° 307° (NW) 00:43:34 437.305
UKube-1 27 Apr 00:45:23 00:46:27 11° 271° (W) 00:47:13 .
NANOSAT C BR1 27 Apr 00:46:49 00:51:07 75° 102° (ESE) 00:55:23 145.865
POPSAT HIP 1 27 Apr 00:50:35 00:54:55 84° 102° (ESE) 00:59:13 437.405
HUMSAT D 27 Apr 00:52:42 00:53:43 11° 272° (W) 00:54:28 437.325/437.525
SPROUT 27 Apr 00:53:41 00:57:49 52° 74° (ENE) 01:02:00 437.525
TIGRISAT 27 Apr 01:01:04 01:05:26 38° 288° (WNW) 01:09:43 435.000
UNISAT 6 27 Apr 01:06:06 01:10:20 33° 289° (WNW) 01:14:27 437.425
BUGSAT 1 27 Apr 01:08:20 01:12:31 88° 291° (WNW) 01:16:44 437.445
RS-15 27 Apr 01:08:24 01:19:58 72° 244° (WSW) 01:31:57 29.354- 29.394
CUBEBUG 1 27 Apr 01:15:20 01:18:43 22° 266° (W) 01:22:01 437.445
VELOX 1 27 Apr 01:16:32 01:17:35 11° 271° (W) 01:18:20 145.980
DUCHIFAT 1 27 Apr 01:20:32 01:24:38 44° 287° (WNW) 01:28:42 145.980
POLYITAN 1 27 Apr 01:21:11 01:25:17 42° 287° (WNW) 01:29:20 437.675
Cosmos 2491 27 Apr 01:26:08 01:33:24 27° 292° (WNW) 01:40:27 435.465 / 435.565
Cosmos 2504 27 Apr 01:26:18 01:34:11 62° 79° (ENE) 01:41:31 435.465 / 435.565
BEESAT 27 Apr 01:31:15 01:34:25 19° 67° (ENE) 01:37:46 436.000
SWISSCUBE 27 Apr 01:33:38 01:37:08 21° 68° (ENE) 01:40:46 437.505
QB50P1 27 Apr 01:39:17 01:42:57 27° 289° (WNW) 01:46:32 145.935-145.965
AIST 1 27 Apr 01:44:07 01:48:26 79° 277° (W) 01:52:44
ANTELSAT 27 Apr 01:49:58 01:52:09 13° 295° (WNW) 01:54:06 437.575/2403.000
TISAT 1 27 Apr 01:54:10 01:58:03 36° 262° (W) 02:01:56 437.305
Oscar 19 27 Apr 01:58:23 02:00:48 14° 89° (E) 02:03:30 437.125/150
QB50P2 27 Apr 02:07:01 02:09:23 14° 293° (WNW) 02:11:34 145.880/145.840
SPROUT 27 Apr 02:32:39 02:34:18 12° 271° (W) 02:35:42 437.525
ITUPSAT 1 27 Apr 02:37:10 02:41:58 86° 75° (ENE) 02:46:46 437.325
KKS-1 27 Apr 02:41:33 02:44:16 17° 67° (ENE) 02:47:09 437.445
JUGNU 27 Apr 02:47:12 02:49:39 13° 177° (S) 02:52:07 437.505
BEESAT 3 27 Apr 02:52:31 02:56:17 37° 115° (ESE) 03:00:07 437.485
BEESAT 2 27 Apr 02:55:49 02:59:30 33° 114° (ESE) 03:03:16 435.950
BEESAT 27 Apr 03:07:24 03:11:59 44° 261° (W) 03:16:33 436.000
SWISSCUBE 27 Apr 03:10:19 03:14:47 38° 262° (W) 03:19:13 437.505
Gurwin Techsat 1B 27 Apr 03:12:57 03:16:39 20° 92° (E) 03:20:31 435.225
Cosmos 2504 27 Apr 03:21:02 03:26:55 22° 277° (W) 03:32:13 435.465 / 435.565
RS-15 27 Apr 03:25:01 03:30:55 14° 260° (W) 03:35:42 29.354- 29.394
STARS 27 Apr 03:31:18 03:35:16 35° 72° (ENE) 03:39:19 437.465
Oscar 19 27 Apr 03:35:31 03:40:41 65° 286° (WNW) 03:45:49 437.125/150
CUSAT 1 27 Apr 03:55:54 04:02:18 28° 69° (ENE) 04:09:18 437.405
GONETS M04 27 Apr 04:03:04 04:11:23 44° 74° (ENE) 04:19:43
AIST 2 27 Apr 04:04:38 04:08:48 60° 118° (ESE) 04:13:02 435.215
AO-7 27 Apr 04:09:59 04:13:28 14° 87° (E) 04:17:40 29.400- 29.500
ITAMSAT 1 27 Apr 04:13:17 04:18:30 87° 103° (ESE) 04:23:42 435.822/435.867
KKS-1 27 Apr 04:16:23 04:20:37 42° 262° (W) 04:24:50 437.445
BEESAT 3 27 Apr 04:31:22 04:34:27 20° 312° (NW) 04:37:28 437.485
BEESAT 2 27 Apr 04:34:26 04:37:43 22° 312° (NW) 04:40:56 435.950
JUGNU 27 Apr 04:35:51 04:37:49 12° 187° (S) 04:39:44 437.505
DANDE 27 Apr 04:44:03 04:51:25 48° 76° (ENE) 04:59:40 436.750
JAS-2 27 Apr 04:45:11 04:49:39 22° 89° (E) 04:53:58 435.910
SRMSAT 27 Apr 04:47:44 04:50:14 13° 178° (S) 04:52:45 437.500
Gurwin Techsat 1B 27 Apr 04:51:50 04:56:55 47° 288° (WNW) 05:01:59 435.225
MOZHAYETS 4 27 Apr 04:54:04 04:58:02 29° 70° (ENE) 05:02:03
HORYU 2 27 Apr 04:54:25 04:58:35 37° 98° (E) 05:02:44 437.375
STARS 27 Apr 05:08:45 05:11:53 18° 267° (W) 05:14:53 437.465
CUSAT 1 27 Apr 05:37:45 05:45:30 64° 265° (W) 05:53:41 437.405
Cosmos 2499 27 Apr 05:43:41 05:50:10 30° 70° (ENE) 05:56:28 435.465 / 435.565
AIST 2 27 Apr 05:45:15 05:47:49 15° 316° (NW) 05:50:17 435.215
ITAMSAT 1 27 Apr 05:55:43 05:57:22 11° 298° (WNW) 05:58:42 435.822/435.867
AO-7 27 Apr 05:59:18 06:07:40 81° 106° (ESE) 06:16:02 29.400- 29.500
AUBIESAT-1 27 Apr 05:59:47 06:03:01 19° 62° (ENE) 06:06:24 437.475
GONETS M04 27 Apr 06:00:09 06:08:09 38° 273° (W) 06:15:55
DANDE 27 Apr 06:27:33 06:34:36 37° 269° (W) 06:42:08 436.750
JAS-2 27 Apr 06:29:16 06:35:14 47° 290° (WNW) 06:40:32 435.910
PRISM 27 Apr 06:29:36 06:31:21 13° 66° (ENE) 06:33:18 437.425
MOZHAYETS 4 27 Apr 06:31:22 06:35:14 25° 266° (W) 06:39:03
HORYU 2 27 Apr 06:31:44 06:34:59 19° 292° (WNW) 06:38:06 437.375
CUBESAT XI-V 27 Apr 06:35:05 06:38:52 26° 70° (ENE) 06:42:45 437.345
SRMSAT 27 Apr 06:37:11 06:38:33 11° 189° (S) 06:39:51 437.500
M-CUBED/EXP-1 PRIME 27 Apr 06:51:44 06:56:31 70° 70° (ENE) 07:01:20 437.505
CUTE-I 27 Apr 07:14:58 07:19:20 26° 94° (E) 07:23:48 437.470
STRAND 1 27 Apr 07:18:48 07:23:29 39° 71° (ENE) 07:28:13 437.568
Cubesat XI-IV 27 Apr 07:24:50 07:29:34 33° 96° (E) 07:34:22 437.490
CUSAT 1 27 Apr 07:24:59 07:27:19 11° 278° (W) 07:28:58 437.405
AUBIESAT-1 27 Apr 07:32:48 07:37:27 49° 257° (WSW) 07:42:06 437.475
Cosmos 2499 27 Apr 07:36:23 07:43:38 46° 270° (W) 07:50:22 435.465 / 435.565
AO-7 27 Apr 07:53:33 07:59:41 23° 304° (WNW) 08:05:30 29.400- 29.500
PRISM 27 Apr 08:02:23 08:06:27 50° 260° (W) 08:10:30 437.425
CUBESAT XI-V 27 Apr 08:12:16 08:16:16 28° 265° (W) 08:20:11 437.345
M-CUBED/EXP-1 PRIME 27 Apr 08:29:49 08:31:51 12° 267° (W) 08:33:36 437.505
PCSat 27 Apr 08:42:11 08:47:29 58° 113° (ESE) 08:52:49 145.827
CUTE-I 27 Apr 08:54:39 08:59:30 36° 290° (WNW) 09:04:17 437.470
STRAND 1 27 Apr 08:58:49 09:02:51 22° 266° (W) 09:06:45 437.568
Cubesat XI-IV 27 Apr 09:05:02 09:09:36 29° 292° (WNW) 09:14:03 437.490
O/OREOS (USA 219) 27 Apr 09:08:53 09:13:24 88° 254° (WSW) 09:17:52 437.305
GOMX 1 27 Apr 09:37:25 09:42:08 34° 96° (E) 09:47:06 467.674
Cosmos 2491 27 Apr 09:40:31 09:47:37 27° 68° (ENE) 09:55:00 435.465 / 435.565
SEEDS 27 Apr 09:40:47 09:43:33 17° 92° (E) 09:46:26 437.485
HO-68 27 Apr 09:45:38 09:52:02 35° 96° (E) 09:58:31 435.675
CANX-2 27 Apr 09:51:20 09:55:08 31° 96° (E) 09:58:57 2200.000
AAUSAT CUBESAT 2 27 Apr 09:53:51 09:56:28 17° 92° (E) 09:59:14 437.432
BRITE-PL 27 Apr 09:58:15 10:03:29 83° 102° (ESE) 10:09:02 437.365/2234.400
CUTE 1.7 + AOD 2 27 Apr 10:00:07 10:04:02 35° 97° (E) 10:07:57 437.475
DOVE 4 27 Apr 10:05:35 10:10:31 43° 98° (E) 10:15:35 437.250
TIGRISAT 27 Apr 10:23:16 10:25:41 15° 66° (ENE) 10:28:19 435.000
CUBEBUG 2 27 Apr 10:26:02 10:29:08 18° 91° (E) 10:32:23 437.445
PCSat 27 Apr 10:27:16 10:31:20 21° 312° (NW) 10:35:17 145.827
UNISAT 6 27 Apr 10:27:53 10:30:44 17° 67° (ENE) 10:33:48 437.425
CINEMA 3 27 Apr 10:37:16 10:42:05 46° 98° (E) 10:46:54 145.822/145.860
YUBILEINY 27 Apr 10:43:35 10:50:49 31° 86° (E) 10:58:18 435.215
COMPASS 1 27 Apr 10:47:00 10:51:13 86° 102° (ESE) 10:55:23 437.405
UWE-3 27 Apr 10:47:57 10:51:43 24° 94° (E) 10:55:32 435.000/436.395/437.385
DELFI C3 27 Apr 10:52:33 10:55:55 26° 95° (E) 10:59:20 145.870
FUNcube-1 27 Apr 10:53:02 10:56:26 21° 92° (E) 10:59:57 145.935
QB50P1 27 Apr 10:55:59 10:58:16 15° 67° (ENE) 11:00:43 145.935-145.965
UKube-1 27 Apr 10:57:23 10:58:31 11° 90° (E) 10:59:56 .
HUMSAT D 27 Apr 11:01:49 11:02:54 11° 88° (E) 11:04:17 437.325/437.525
ANTELSAT 27 Apr 11:08:20 11:12:38 45° 73° (ENE) 11:17:06 437.575/2403.000
Oscar 11 27 Apr 11:13:39 11:17:59 66° 101° (E) 11:22:17 145.826/435.025
BEESAT 3 27 Apr 11:13:40 11:16:12 16° 46° (NE) 11:18:49 437.485
SEEDS 27 Apr 11:15:38 11:19:31 34° 288° (WNW) 11:23:18 437.485
GOMX 1 27 Apr 11:15:42 11:20:09 28° 290° (WNW) 11:24:39 467.674
BEESAT 2 27 Apr 11:17:31 11:19:52 15° 45° (NE) 11:22:19 435.950
ZACube-1 27 Apr 11:18:29 11:22:49 40° 97° (E) 11:27:09 437.345
QB50P2 27 Apr 11:21:15 11:24:51 29° 71° (ENE) 11:28:33 145.880/145.840
CANX-2 27 Apr 11:27:42 11:30:54 20° 291° (WNW) 11:33:58 2200.000
AAUSAT CUBESAT 2 27 Apr 11:28:26 11:32:16 35° 288° (WNW) 11:36:02 437.432
VELOX 1 27 Apr 11:30:13 11:32:16 13° 90° (E) 11:34:34 145.980
50 SAT 27 Apr 11:32:13 11:34:19 14° 91° (E) 11:36:37 437.505
HO-68 27 Apr 11:33:10 11:39:51 42° 293° (WNW) 11:46:25 435.675
ISS 27 Apr 11:34:49 11:37:43 31° 134° (SE) 11:40:40 145.825
Cosmos 2491 27 Apr 11:36:29 11:45:10 62° 268° (W) 11:53:46 435.465 / 435.565
CUTE 1.7 + AOD 2 27 Apr 11:36:46 11:39:43 18° 292° (WNW) 11:42:32 437.475
NANOSAT C BR1 27 Apr 11:37:42 11:41:40 43° 73° (ENE) 11:45:41 145.865
BRITE-PL 27 Apr 11:39:17 11:41:31 12° 295° (WNW) 11:43:29 437.365/2234.400
POPSAT HIP 1 27 Apr 11:41:39 11:45:41 48° 74° (ENE) 11:49:48 437.405
DOVE 4 27 Apr 11:44:01 11:48:01 22° 291° (WNW) 11:51:57 437.250
SO-50 27 Apr 11:44:36 11:48:57 44° 116° (ESE) 11:53:31 436.795
AISAT 27 Apr 11:47:41 11:51:08 22° 94° (E) 11:54:42 437.250
DX 1 27 Apr 11:50:19 11:54:35 51° 100° (E) 11:58:51 434.975-435.025
AIST 1 27 Apr 11:53:50 11:56:59 20° 73° (ENE) 12:00:14
BUGSAT 1 27 Apr 11:56:48 12:00:39 48° 74° (ENE) 12:04:34 437.445
TIGRISAT 27 Apr 11:57:36 12:02:00 52° 261° (W) 12:06:32 435.000
CUBEBUG 2 27 Apr 12:01:30 12:06:04 44° 287° (WNW) 12:10:33 437.445
UNISAT 6 27 Apr 12:02:51 12:07:11 44° 262° (W) 12:11:38 437.425
DUCHIFAT 1 27 Apr 12:10:50 12:15:01 76° 258° (WSW) 12:19:15 145.980
POLYITAN 1 27 Apr 12:12:06 12:16:18 71° 259° (WSW) 12:20:33 437.675
CINEMA 3 27 Apr 12:15:19 12:18:57 20° 292° (WNW) 12:22:27 145.822/145.860
UWE-3 27 Apr 12:24:06 12:28:16 31° 289° (WNW) 12:32:20 435.000/436.395/437.385
DELFI C3 27 Apr 12:27:50 12:30:58 21° 290° (WNW) 12:33:58 145.870
AIST 2 27 Apr 12:28:29 12:31:58 24° 49° (NE) 12:35:27 435.215
FUNcube-1 27 Apr 12:28:42 12:32:53 34° 288° (WNW) 12:36:58 145.935
QB50P1 27 Apr 12:29:47 12:33:48 43° 261° (W) 12:37:51 145.935-145.965
UKube-1 27 Apr 12:30:50 12:35:06 57° 286° (WNW) 12:39:19 .
ESTCUBE 1 27 Apr 12:32:29 12:36:38 37° 97° (E) 12:40:48 437.505/2401.250
HUMSAT D 27 Apr 12:34:51 12:39:08 57° 285° (WNW) 12:43:19 437.325/437.525
YUBILEINY 27 Apr 12:38:41 12:47:17 54° 283° (WNW) 12:55:51 435.215
SPROUT 27 Apr 12:44:51 12:45:38 11° 89° (E) 12:46:42 437.525
ANTELSAT 27 Apr 12:46:53 12:49:44 16° 270° (W) 12:52:26 437.575/2403.000
BEESAT 3 27 Apr 12:50:34 12:54:32 49° 244° (WSW) 12:58:24 437.485
Oscar 11 27 Apr 12:52:31 12:53:40 11° 295° (WNW) 12:54:33 145.826/435.025
BEESAT 2 27 Apr 12:54:19 12:58:21 55° 243° (WSW) 13:02:18 435.950
ZACube-1 27 Apr 12:55:39 12:58:54 19° 292° (WNW) 13:01:59 437.345
QB50P2 27 Apr 12:57:32 13:00:48 21° 267° (W) 13:03:59 145.880/145.840
CUBEBUG 1 27 Apr 13:04:38 13:09:01 77° 101° (E) 13:13:24 437.445
VELOX 1 27 Apr 13:04:52 13:09:11 50° 286° (WNW) 13:13:29 145.980
50 SAT 27 Apr 13:05:34 13:09:21 38° 287° (WNW) 13:13:03 437.505
ISS 27 Apr 13:11:16 13:14:05 26° 330° (NNW) 13:16:55 145.825
Oscar 19 27 Apr 13:13:25 13:16:43 18° 65° (ENE) 13:20:13 437.125/150
NANOSAT C BR1 27 Apr 13:15:30 13:17:47 14° 269° (W) 13:19:54 145.865
POPSAT HIP 1 27 Apr 13:20:02 13:21:56 12° 270° (W) 13:23:36 437.405
RS-15 27 Apr 13:22:04 13:28:49 20° 103° (ESE) 13:36:19 29.354- 29.394
AISAT 27 Apr 13:23:50 13:27:46 30° 289° (WNW) 13:31:40 437.250
SO-50 27 Apr 13:26:01 13:29:45 22° 314° (NW) 13:33:30 436.795
DX 1 27 Apr 13:28:08 13:30:27 14° 294° (WNW) 13:32:34 434.975-435.025
AIST 1 27 Apr 13:31:00 13:34:41 28° 269° (W) 13:38:18
BUGSAT 1 27 Apr 13:35:12 13:36:30 11° 270° (W) 13:37:34 437.445
TISAT 1 27 Apr 13:40:14 13:44:11 37° 98° (E) 13:48:09 437.305
ITAMSAT 1 27 Apr 13:53:34 13:55:46 13° 63° (ENE) 13:58:13 435.822/435.867
Cosmos 2504 27 Apr 14:00:25 14:08:59 57° 91° (E) 14:17:31 435.465 / 435.565
AIST 2 27 Apr 14:06:51 14:10:34 30° 246° (WSW) 14:14:10 435.215
ESTCUBE 1 27 Apr 14:10:03 14:13:17 19° 292° (WNW) 14:16:22 437.505/2401.250
SPROUT 27 Apr 14:17:55 14:22:11 59° 285° (WNW) 14:26:27 437.525
Gurwin Techsat 1B 27 Apr 14:32:14 14:36:34 27° 68° (ENE) 14:41:01 435.225
ITUPSAT 1 27 Apr 14:40:11 14:44:04 25° 95° (E) 14:48:02 437.325
Oscar 19 27 Apr 14:50:40 14:55:42 53° 260° (W) 15:00:46 437.125/150
JAS-2 27 Apr 14:57:21 14:59:56 12° 58° (ENE) 15:03:01 435.910
AO-7 27 Apr 15:07:08 15:12:28 20° 55° (NE) 15:18:08 29.400- 29.500
BEESAT 27 Apr 15:09:11 15:13:51 53° 100° (E) 15:18:30 436.000
SWISSCUBE 27 Apr 15:12:01 15:16:44 62° 101° (E) 15:21:26 437.505
TISAT 1 27 Apr 15:16:50 15:19:43 17° 292° (WNW) 15:22:28 437.305
RS-15 27 Apr 15:28:59 15:39:54 89° 297° (WNW) 15:51:05 29.354- 29.394
ITAMSAT 1 27 Apr 15:29:32 15:34:43 75° 257° (WSW) 15:39:55 435.822/435.867
HORYU 2 27 Apr 15:51:13 15:55:02 28° 70° (ENE) 15:58:55 437.375
Cosmos 2504 27 Apr 15:55:09 16:02:52 31° 290° (WNW) 16:10:16 435.465 / 435.565
VERMONT LUNAR 27 Apr 16:04:59 16:07:47 25° 150° (SSE) 16:10:39 437.305
KKS-1 27 Apr 16:09:05 16:13:20 40° 98° (E) 16:17:34 437.445
Gurwin Techsat 1B 27 Apr 16:11:35 16:16:26 35° 263° (W) 16:21:15 435.225
ITUPSAT 1 27 Apr 16:17:48 16:22:00 30° 290° (WNW) 16:26:05 437.325
JAS-2 27 Apr 16:36:09 16:43:53 64° 73° (ENE) 16:51:23 435.910
BEESAT 27 Apr 16:48:26 16:51:18 16° 295° (WNW) 16:54:00 436.000
SWISSCUBE 27 Apr 16:51:44 16:54:08 13° 295° (WNW) 16:56:17 437.505
PHONESAT 2.4 27 Apr 16:53:46 16:56:34 22° 148° (SSE) 16:59:25 2401.200-2431.200
AO-7 27 Apr 16:56:02 17:04:21 89° 262° (W) 17:12:41 29.400- 29.500
STARS 27 Apr 16:58:35 17:03:04 88° 283° (WNW) 17:07:32 437.465
GONETS M04 27 Apr 17:01:31 17:09:52 53° 91° (E) 17:18:23
CUSAT 1 27 Apr 17:05:01 17:07:00 14° 82° (E) 17:09:28 437.405
HORYU 2 27 Apr 17:27:58 17:31:41 24° 265° (W) 17:35:19 437.375
PCSat 27 Apr 17:32:02 17:36:53 33° 53° (NE) 17:41:46 145.827
VERMONT LUNAR 27 Apr 17:41:40 17:45:03 82° 343° (NNW) 17:48:27 437.305
RS-15 27 Apr 17:44:58 17:54:07 28° 327° (NNW) 18:03:15 29.354- 29.394
KKS-1 27 Apr 17:46:37 17:49:41 18° 293° (WNW) 17:52:37 437.445
DANDE 27 Apr 17:56:35 17:59:43 38° 91° (E) 18:03:49 436.750
ISS 27 Apr 18:03:35 18:06:18 24° 29° (NNE) 18:09:02 145.825
Cosmos 2499 27 Apr 18:17:12 18:24:15 29° 86° (E) 18:31:26 435.465 / 435.565
JAS-2 27 Apr 18:22:58 18:29:20 26° 269° (W) 18:35:20 435.910
MOZHAYETS 4 27 Apr 18:27:18 18:31:55 88° 102° (ESE) 18:36:28
PHONESAT 2.4 27 Apr 18:30:57 18:34:32 88° 165° (SSE) 18:38:08 2401.200-2431.200
CUTE-I 27 Apr 18:35:04 18:39:52 37° 70° (ENE) 18:44:45 437.470
Cubesat XI-IV 27 Apr 18:45:05 18:50:07 46° 72° (ENE) 18:55:13 437.490
CUSAT 1 27 Apr 18:45:39 18:49:06 34° 289° (WNW) 18:53:32 437.405
AO-7 27 Apr 18:53:24 18:58:21 16° 271° (W) 19:02:44 29.400- 29.500
GONETS M04 27 Apr 18:59:29 19:07:10 32° 290° (WNW) 19:14:41
PCSat 27 Apr 19:15:27 19:20:17 32° 250° (WSW) 19:25:00 145.827
AUBIESAT-1 27 Apr 19:18:07 19:19:51 13° 94° (E) 19:21:43 437.475
VERMONT LUNAR 27 Apr 19:19:22 19:22:41 52° 2° (N) 19:26:01 437.305
STRAND 1 27 Apr 19:32:26 19:35:06 15° 90° (E) 19:38:02 437.568
ISS 27 Apr 19:39:42 19:42:44 36° 225° (SW) 19:45:44 145.825
DANDE 27 Apr 19:42:14 19:43:42 11° 301° (WNW) 19:45:04 436.750
PRISM 27 Apr 19:47:01 19:50:18 24° 95° (E) 19:53:39 437.425
RS-15 27 Apr 20:05:46 20:11:59 16° 1° (N) 20:18:22 29.354- 29.394
Cosmos 2499 27 Apr 20:08:15 20:17:00 59° 282° (WNW) 20:25:29 435.465 / 435.565
PHONESAT 2.4 27 Apr 20:09:24 20:12:56 54° 359° (N) 20:16:27 2401.200-2431.200
CUBESAT XI-V 27 Apr 20:09:49 20:14:27 83° 104° (ESE) 20:19:04 437.345
M-CUBED/EXP-1 PRIME 27 Apr 20:10:42 20:14:48 72° 106° (ESE) 20:18:32 437.505
HO-68 27 Apr 20:13:30 20:18:44 23° 61° (ENE) 20:24:13 435.675
CUTE-I 27 Apr 20:15:39 20:20:03 25° 266° (W) 20:24:22 437.470
SO-50 27 Apr 20:17:48 20:22:03 28° 49° (NE) 20:26:20 436.795
Cubesat XI-IV 27 Apr 20:26:33 20:30:30 20° 268° (W) 20:34:17 437.490
SEEDS 27 Apr 20:33:18 20:34:14 11° 66° (ENE) 20:35:25 437.485
CANX-2 27 Apr 20:43:17 20:46:18 19° 69° (ENE) 20:49:27 2200.000
GOMX 1 27 Apr 20:45:02 20:48:27 25° 69° (ENE) 20:52:05 467.674
AUBIESAT-1 27 Apr 20:51:12 20:55:01 40° 293° (WNW) 20:58:31 437.475
CUTE 1.7 + AOD 2 27 Apr 20:51:49 20:55:04 22° 70° (ENE) 20:58:25 437.475
VERMONT LUNAR 27 Apr 20:56:53 21:00:17 82° 200° (SSW) 21:03:39 437.305
YUBILEINY 27 Apr 20:57:36 21:00:40 13° 57° (ENE) 21:04:27 435.215
BRITE-PL 27 Apr 21:08:18 21:12:26 75° 77° (ENE) 21:16:45 437.365/2234.400
STRAND 1 27 Apr 21:09:45 21:14:46 58° 287° (WNW) 21:19:46 437.568
DOVE 4 27 Apr 21:10:18 21:14:02 31° 71° (ENE) 21:18:01 437.250
PRISM 27 Apr 21:22:23 21:25:44 24° 290° (WNW) 21:28:59 437.425
CUBEBUG 2 27 Apr 21:24:22 21:25:52 12° 65° (ENE) 21:27:37 437.445
COMPASS 1 27 Apr 21:36:23 21:40:25 45° 74° (ENE) 21:44:31 437.405
CINEMA 3 27 Apr 21:37:47 21:41:37 31° 71° (ENE) 21:45:40 145.822/145.860
DELFI C3 27 Apr 21:39:45 21:41:48 14° 68° (ENE) 21:44:02 145.870
O/OREOS (USA 219) 27 Apr 21:42:40 21:44:41 13° 100° (E) 21:46:56 437.305
UWE-3 27 Apr 21:44:28 21:47:05 16° 67° (ENE) 21:49:55 435.000/436.395/437.385
PHONESAT 2.4 27 Apr 21:47:44 21:51:20 89° 359° (N) 21:54:55 2401.200-2431.200
FUNcube-1 27 Apr 21:48:28 21:50:34 14° 66° (ENE) 21:52:54 145.935
SO-50 27 Apr 21:58:08 22:02:41 36° 246° (WSW) 22:07:05 436.795
HO-68 27 Apr 21:58:47 22:05:56 67° 257° (WSW) 22:13:07 435.675
SEEDS 27 Apr 22:05:19 22:09:34 64° 260° (W) 22:13:49 437.485
Oscar 11 27 Apr 22:06:40 22:10:43 40° 73° (ENE) 22:14:50 145.826/435.025
ZACube-1 27 Apr 22:13:10 22:16:44 26° 70° (ENE) 22:20:29 437.345
AAUSAT CUBESAT 2 27 Apr 22:16:53 22:21:04 68° 259° (W) 22:25:18 437.432
CANX-2 27 Apr 22:18:06 22:22:02 33° 264° (W) 22:25:57 2200.000
RS-15 27 Apr 22:20:12 22:29:46 30° 35° (NE) 22:39:57 29.354- 29.394
GOMX 1 27 Apr 22:23:06 22:26:35 24° 267° (W) 22:30:08 467.674
CUTE 1.7 + AOD 2 27 Apr 22:27:02 22:30:51 29° 265° (W) 22:34:36 437.475
VELOX 1 27 Apr 22:28:14 22:28:50 10° 64° (ENE) 22:29:41 145.980
VERMONT LUNAR 27 Apr 22:34:59 22:37:27 18° 212° (SSW) 22:39:50 437.305
Cosmos 2491 27 Apr 22:39:48 22:47:07 33° 86° (E) 22:54:42 435.465 / 435.565
DX 1 27 Apr 22:44:23 22:48:18 35° 72° (ENE) 22:52:16 434.975-435.025
AISAT 27 Apr 22:44:44 22:47:30 17° 67° (ENE) 22:50:25 437.250
DOVE 4 27 Apr 22:48:43 22:51:57 20° 268° (W) 22:55:10 437.250
YUBILEINY 27 Apr 22:50:47 22:59:31 72° 80° (E) 23:08:12 435.215
CUBEBUG 2 27 Apr 22:57:42 23:02:01 63° 260° (W) 23:06:33 437.445
ANTELSAT 27 Apr 23:04:35 23:05:56 11° 88° (E) 23:07:35 437.575/2403.000
DELFI C3 27 Apr 23:12:43 23:16:37 43° 262° (W) 23:20:31 145.870
COMPASS 1 27 Apr 23:14:14 23:16:25 13° 270° (W) 23:18:23 437.405
CINEMA 3 27 Apr 23:15:33 23:18:55 21° 268° (W) 23:22:18 145.822/145.860
UWE-3 27 Apr 23:19:05 23:23:16 44° 262° (W) 23:27:35 435.000/436.395/437.385
O/OREOS (USA 219) 27 Apr 23:19:13 23:23:42 53° 294° (WNW) 23:28:11 437.305
FUNcube-1 27 Apr 23:22:13 23:26:28 52° 261° (W) 23:30:50 145.935
UKube-1 27 Apr 23:23:39 23:27:58 85° 254° (WSW) 23:32:19 .
HUMSAT D 27 Apr 23:24:32 23:28:46 79° 76° (ENE) 23:33:04 437.325/437.525
PHONESAT 2.4 27 Apr 23:26:23 23:29:19 23° 211° (SSW) 23:32:13 2401.200-2431.200
